Change the Weather History Date:

Tuesday, March 18, 2014

  Actual Average Record
Temperature  
Mean Temperature 50 °F -  
Max Temperature 55 °F 67 °F 86 °F (2011)
Min Temperature 46 °F 40 °F 44 °F (2013)
Degree Days  
Heating Degree Days 14    
Moisture  
Dew Point 50 °F    
Average Humidity 97    
Maximum Humidity 100    
Minimum Humidity 88    
Precipitation  
Precipitation 0.00 in - - ()
Sea Level Pressure  
Sea Level Pressure 30.01 in    
Wind  
Wind Speed 11 mph (NNE)    
Max Wind Speed 16 mph    
Max Gust Speed 21 mph    
Visibility 8 miles    
Events Rain    
Averages and records for this station are not official NWS values.
T = Trace of Precipitation, MM = Missing Value Source: NWS Daily Summary

Daily Weather History Graph

Daily Weather History Graph

Search for Another Location

Airport or City:

Trip Planner

Search our weather history database for the weather conditions in past years. The results will help you decide how hot, cold, wet, or windy it might be!

Date:

Astronomy

Mar. 18, 2014 Rise Set
Actual Time 7:27 AM EDT 7:31 PM EDT
Civil Twilight 7:02 AM EDT 7:56 PM EDT
Nautical Twilight 6:33 AM EDT 8:25 PM EDT
Astronomical Twilight 6:04 AM EDT 8:54 PM EDT
Moon 9:39 PM EDT (3/18) 8:22 AM EDT (3/18)
Length of Visible Light 12h 53m
Length of Day
12h 03m
Waning Gibbous, 96% of the Moon is Illuminated
Mar 18
Waning Gibbous
Mar 23
Last Quarter
Mar 30
New
Apr 7
First Quarter
Apr 15
Full

Hourly Weather History & Observations

Time (EDT) Temp. Windchill Dew Point Humidity Pressure Visibility Wind Dir Wind Speed Gust Speed Precip Events Conditions
12:15 AM 48.2 °F - 48.2 °F 100% 29.93 in 3.0 mi NNE 10.4 mph - N/A   Light Drizzle
12:35 AM 48.2 °F - 48.2 °F 100% 29.93 in 2.5 mi NNE 12.7 mph - N/A Rain Light Rain
12:55 AM 48.2 °F - 48.2 °F 100% 29.93 in 7.0 mi NNE 11.5 mph - N/A   Overcast
1:15 AM 48.2 °F - 48.2 °F 100% 29.93 in 7.0 mi NNE 8.1 mph 13.8 mph N/A   Overcast
1:35 AM 48.2 °F - 48.2 °F 100% 29.93 in 4.0 mi NE 9.2 mph 17.3 mph N/A Rain Rain
1:55 AM 48.2 °F - 48.2 °F 100% 29.91 in 4.0 mi NE 12.7 mph - N/A Rain Light Rain
2:15 AM 46.4 °F 40.7 °F 46.4 °F 100% 29.91 in 5.0 mi NNE 12.7 mph - N/A   Light Drizzle
2:35 AM 46.4 °F 41.5 °F 46.4 °F 100% 29.91 in 5.0 mi NNE 10.4 mph 18.4 mph N/A   Light Drizzle
2:55 AM 46.4 °F 40.7 °F 46.4 °F 100% 29.90 in 10.0 mi NNE 12.7 mph - N/A   Unknown
3:15 AM 46.4 °F 41.1 °F 46.4 °F 100% 29.89 in 10.0 mi NNE 11.5 mph - N/A   Overcast
3:35 AM 46.4 °F 41.5 °F 46.4 °F 100% 29.90 in 6.0 mi North 10.4 mph - N/A   Overcast
3:55 AM 46.4 °F 41.1 °F 46.4 °F 100% 29.90 in 7.0 mi NNE 11.5 mph - N/A   Unknown
4:15 AM 46.4 °F 40.7 °F 46.4 °F 100% 29.90 in 10.0 mi NNE 12.7 mph - N/A   Overcast
4:35 AM 46.4 °F 40.4 °F 46.4 °F 100% 29.88 in 9.0 mi NE 13.8 mph 20.7 mph N/A   Unknown
4:55 AM 46.4 °F 41.9 °F 46.4 °F 100% 29.93 in 9.0 mi NE 9.2 mph 16.1 mph N/A   Unknown
5:15 AM 46.4 °F 41.1 °F 46.4 °F 100% 29.94 in 10.0 mi NE 11.5 mph - N/A   Overcast
5:35 AM 46.4 °F 40.1 °F 46.4 °F 100% 29.92 in 6.0 mi NE 15.0 mph - N/A   Overcast
5:55 AM 46.4 °F 41.5 °F 46.4 °F 100% 29.91 in 3.0 mi NNE 10.4 mph 17.3 mph N/A   Light Drizzle
6:15 AM 46.4 °F 39.8 °F 46.4 °F 100% 29.86 in 3.0 mi NNE 16.1 mph - N/A   Light Drizzle
6:35 AM 46.4 °F 41.1 °F 46.4 °F 100% 29.89 in 7.0 mi NNE 11.5 mph 18.4 mph N/A   Unknown
6:55 AM 46.4 °F 41.1 °F 46.4 °F 100% 29.89 in 10.0 mi NNE 11.5 mph - N/A   Unknown
7:15 AM 46.4 °F 40.7 °F 46.4 °F 100% 29.88 in 9.0 mi NNE 12.7 mph 18.4 mph N/A   Overcast
7:35 AM 46.4 °F 40.4 °F 46.4 °F 100% 29.89 in 10.0 mi NNE 13.8 mph 19.6 mph N/A   Overcast
7:55 AM 46.4 °F 41.5 °F 46.4 °F 100% 29.90 in 10.0 mi North 10.4 mph 20.7 mph N/A   Unknown
8:15 AM 46.4 °F 41.5 °F 46.4 °F 100% 29.92 in 8.0 mi North 10.4 mph 16.1 mph N/A   Overcast
8:35 AM 46.4 °F 40.7 °F 46.4 °F 100% 29.93 in 2.5 mi North 12.7 mph - N/A   Light Drizzle
8:55 AM 46.4 °F 40.4 °F 46.4 °F 100% 29.95 in 5.0 mi NNE 13.8 mph - N/A   Mist
9:15 AM 46.4 °F 41.5 °F 46.4 °F 100% 29.98 in 8.0 mi NNE 10.4 mph - N/A   Unknown
9:35 AM 46.4 °F 41.9 °F 46.4 °F 100% 29.98 in 9.0 mi NNE 9.2 mph - N/A   Overcast
9:55 AM 48.2 °F - 48.2 °F 100% 29.99 in 4.0 mi NNE 10.4 mph - N/A   Overcast
10:15 AM 48.2 °F - 48.2 °F 100% 29.98 in 6.0 mi NNE 12.7 mph - N/A   Overcast
10:35 AM 48.2 °F - 48.2 °F 100% 30.00 in 8.0 mi North 11.5 mph - N/A   Overcast
10:55 AM 50.0 °F - 48.2 °F 94% 30.03 in 10.0 mi North 8.1 mph - N/A   Overcast
11:15 AM 50.0 °F - 50.0 °F 100% 30.03 in 10.0 mi NE 10.4 mph - N/A   Overcast
11:35 AM 50.0 °F - 50.0 °F 100% 30.04 in 10.0 mi North 8.1 mph - N/A   Overcast
11:55 AM 50.0 °F - 50.0 °F 100% 30.05 in 10.0 mi NNE 9.2 mph - N/A   Overcast
12:15 PM 51.8 °F - 50.0 °F 94% 30.05 in 10.0 mi NNE 9.2 mph - N/A   Overcast
12:35 PM 51.8 °F - 50.0 °F 94% 30.06 in 9.0 mi North 10.4 mph - N/A   Overcast
12:55 PM 53.6 °F - 50.0 °F 88% 30.05 in 10.0 mi North 9.2 mph - N/A   Overcast
1:15 PM 53.6 °F - 51.8 °F 94% 30.05 in 10.0 mi North 9.2 mph - N/A   Overcast
1:35 PM 53.6 °F - 51.8 °F 94% 30.06 in 10.0 mi North 9.2 mph - N/A   Overcast
1:55 PM 53.6 °F - 51.8 °F 94% 30.05 in 10.0 mi NNE 9.2 mph - N/A   Overcast
2:15 PM 53.6 °F - 51.8 °F 94% 30.05 in 10.0 mi NNE 10.4 mph - N/A   Overcast
2:35 PM 55.4 °F - 51.8 °F 88% 30.05 in 10.0 mi North 9.2 mph 16.1 mph N/A   Overcast
2:55 PM 53.6 °F - 51.8 °F 94% 30.05 in 10.0 mi North 10.4 mph - N/A   Overcast
3:15 PM 53.6 °F - 51.8 °F 94% 30.05 in 10.0 mi North 13.8 mph - N/A   Overcast
3:35 PM 53.6 °F - 51.8 °F 94% 30.05 in 10.0 mi North 12.7 mph - N/A   Overcast
3:55 PM 53.6 °F - 51.8 °F 94% 30.06 in 10.0 mi North 12.7 mph - N/A   Overcast
4:15 PM 53.6 °F - 51.8 °F 94% 30.06 in 10.0 mi North 12.7 mph - N/A   Overcast
4:35 PM 53.6 °F - 51.8 °F 94% 30.06 in 10.0 mi NNE 11.5 mph - N/A   Overcast
4:55 PM 53.6 °F - 51.8 °F 94% 30.06 in 10.0 mi North 10.4 mph - N/A   Overcast
5:15 PM 53.6 °F - 51.8 °F 94% 30.05 in 10.0 mi North 12.7 mph - N/A   Overcast
5:35 PM 55.4 °F - 51.8 °F 88% 30.05 in 10.0 mi NNE 11.5 mph - N/A   Overcast
5:55 PM 55.4 °F - 51.8 °F 88% 30.05 in 10.0 mi NE 10.4 mph 16.1 mph N/A   Overcast
6:15 PM 55.4 °F - 51.8 °F 88% 30.05 in 10.0 mi NNE 9.2 mph - N/A   Overcast
6:35 PM 55.4 °F - 51.8 °F 88% 30.06 in 10.0 mi NNE 6.9 mph - N/A   Overcast
6:55 PM 55.4 °F - 51.8 °F 88% 30.07 in 10.0 mi NNE 9.2 mph - N/A   Overcast
7:15 PM 55.4 °F - 51.8 °F 88% 30.09 in 10.0 mi NNE 9.2 mph - N/A   Overcast
7:35 PM 55.4 °F - 51.8 °F 88% 30.09 in 10.0 mi NNE 5.8 mph - N/A   Overcast
7:55 PM 55.4 °F - 51.8 °F 88% 30.09 in 10.0 mi NNE 9.2 mph - N/A   Overcast
8:15 PM 53.6 °F - 51.8 °F 94% 30.10 in 10.0 mi North 6.9 mph - N/A   Overcast
8:35 PM 53.6 °F - 51.8 °F 94% 30.11 in 10.0 mi NNE 8.1 mph - N/A   Overcast
8:55 PM 53.6 °F - 51.8 °F 94% 30.12 in 10.0 mi NNE 6.9 mph - N/A   Overcast
9:15 PM 53.6 °F - 51.8 °F 94% 30.13 in 10.0 mi NNE 6.9 mph - N/A   Unknown
9:35 PM 53.6 °F - 51.8 °F 94% 30.14 in 10.0 mi NNE 5.8 mph - N/A   Overcast
9:55 PM 53.6 °F - 53.6 °F 100% 30.15 in 9.0 mi NNE 6.9 mph - N/A   Overcast
10:15 PM 53.6 °F - 53.6 °F 100% 30.15 in 7.0 mi NNE 6.9 mph - N/A   Overcast
10:35 PM 53.6 °F - 53.6 °F 100% 30.15 in 7.0 mi NNE 5.8 mph - N/A   Overcast
10:55 PM 53.6 °F - 53.6 °F 100% 30.15 in 5.0 mi NNE 5.8 mph - N/A   Overcast
11:15 PM 53.6 °F - 53.6 °F 100% 30.15 in 1.8 mi NNE 5.8 mph - N/A   Overcast
11:35 PM 53.6 °F - 53.6 °F 100% 30.15 in 3.0 mi NNE 5.8 mph - N/A   Overcast
11:55 PM 53.6 °F - 53.6 °F 100% 30.15 in 5.0 mi NNE 6.9 mph - N/A   Overcast